TimeCDT,TemperatureF,Dew PointF,Humidity,Sea Level PressureIn,VisibilityMPH,Wind Direction,Wind SpeedMPH,Gust SpeedMPH,PrecipitationIn,Events,Conditions,WindDirDegrees,DateUTC
12:15 AM,57.7,32.5,39,30.11,10.0,NE,10.4,-,N/A,,Clear,40,2013-03-20 05:15:00
12:35 AM,57.2,32.7,40,30.12,10.0,NE,5.8,-,N/A,,Clear,50,2013-03-20 05:35:00
12:55 AM,55.9,32.7,41,30.13,10.0,NNE,3.5,-,N/A,,Clear,30,2013-03-20 05:55:00
1:15 AM,54.9,32.5,43,30.14,10.0,NE,5.8,-,N/A,,Clear,40,2013-03-20 06:15:00
1:35 AM,54.1,32.5,44,30.15,10.0,NNE,5.8,-,N/A,,Clear,20,2013-03-20 06:35:00
1:55 AM,53.8,32.9,45,30.16,10.0,NNE,5.8,-,N/A,,Clear,30,2013-03-20 06:55:00
2:15 AM,52.9,32.9,47,30.16,10.0,NNE,5.8,-,N/A,,Clear,20,2013-03-20 07:15:00
2:35 AM,52.9,32.9,47,30.17,10.0,NNE,6.9,-,N/A,,Clear,20,2013-03-20 07:35:00
2:55 AM,52.3,33.3,48,30.18,10.0,North,5.8,-,N/A,,Clear,10,2013-03-20 07:55:00
3:15 AM,51.8,34.0,51,30.19,10.0,North,8.1,-,N/A,,Clear,10,2013-03-20 08:15:00
3:35 AM,49.5,34.7,57,30.19,10.0,North,8.1,-,N/A,,Clear,10,2013-03-20 08:35:00
3:55 AM,51.4,34.7,53,30.18,10.0,NNE,6.9,-,N/A,,Clear,30,2013-03-20 08:55:00
4:15 AM,51.8,34.7,52,30.17,10.0,NE,10.4,-,N/A,,Clear,40,2013-03-20 09:15:00
4:35 AM,51.4,34.7,53,30.18,10.0,NE,9.2,-,N/A,,Clear,40,2013-03-20 09:35:00
4:55 AM,51.1,34.3,53,30.18,10.0,NE,9.2,-,N/A,,Clear,40,2013-03-20 09:55:00
5:15 AM,50.5,34.2,53,30.19,10.0,NNE,9.2,-,N/A,,Clear,30,2013-03-20 10:15:00
5:35 AM,50.0,33.8,54,30.20,10.0,NE,9.2,-,N/A,,Clear,40,2013-03-20 10:35:00
5:55 AM,49.1,33.8,56,30.20,10.0,NE,8.1,-,N/A,,Clear,40,2013-03-20 10:55:00
6:15 AM,49.1,33.8,56,30.21,10.0,NNE,6.9,-,N/A,,Clear,30,2013-03-20 11:15:00
6:35 AM,49.1,33.8,56,30.22,10.0,NNE,6.9,-,N/A,,Clear,30,2013-03-20 11:35:00
6:55 AM,48.2,33.6,57,30.24,10.0,NNE,3.5,-,N/A,,Clear,20,2013-03-20 11:55:00
7:15 AM,46.9,33.4,59,30.25,10.0,North,5.8,-,N/A,,Clear,10,2013-03-20 12:15:00
7:35 AM,43.0,33.4,69,30.27,10.0,North,4.6,-,N/A,,Clear,10,2013-03-20 12:35:00
7:55 AM,42.6,33.6,70,30.27,10.0,North,3.5,-,N/A,,Clear,10,2013-03-20 12:55:00
8:15 AM,46.9,34.9,63,30.28,10.0,NNE,4.6,-,N/A,,Clear,20,2013-03-20 13:15:00
8:35 AM,49.6,35.1,57,30.28,10.0,NNE,5.8,-,N/A,,Clear,30,2013-03-20 13:35:00
8:55 AM,50.9,35.8,56,30.30,10.0,NNE,4.6,-,N/A,,Clear,30,2013-03-20 13:55:00
9:15 AM,52.7,35.4,52,30.30,10.0,NNE,5.8,-,N/A,,Clear,30,2013-03-20 14:15:00
9:35 AM,53.6,34.3,48,30.31,10.0,NNE,8.1,-,N/A,,Clear,30,2013-03-20 14:35:00
9:55 AM,54.9,33.3,44,30.31,10.0,NNE,5.8,-,N/A,,Clear,30,2013-03-20 14:55:00
10:15 AM,56.3,32.2,40,30.32,10.0,ENE,5.8,-,N/A,,Clear,70,2013-03-20 15:15:00
10:35 AM,57.6,32.5,39,30.31,10.0,NE,6.9,-,N/A,,Clear,50,2013-03-20 15:35:00
10:55 AM,58.8,34.0,39,30.31,10.0,NE,4.6,-,N/A,,Clear,50,2013-03-20 15:55:00
11:15 AM,59.4,32.9,37,30.31,10.0,NE,3.5,-,N/A,,Clear,40,2013-03-20 16:15:00
11:35 AM,61.3,32.9,34,30.31,10.0,NNE,6.9,-,N/A,,Clear,30,2013-03-20 16:35:00
11:55 AM,63.0,32.0,31,30.30,10.0,NE,9.2,-,N/A,,Clear,40,2013-03-20 16:55:00
12:15 PM,63.5,28.0,26,30.30,10.0,NNE,11.5,17.3,N/A,,Clear,20,2013-03-20 17:15:00
12:35 PM,64.8,23.0,20,30.29,10.0,NNE,12.7,-,N/A,,Clear,30,2013-03-20 17:35:00
12:55 PM,65.3,18.3,16,30.29,10.0,NE,15.0,21.9,N/A,,Clear,40,2013-03-20 17:55:00
1:15 PM,65.1,21.2,19,30.28,10.0,ENE,15.0,18.4,N/A,,Clear,60,2013-03-20 18:15:00
1:35 PM,64.6,20.1,18,30.27,10.0,NNE,10.4,17.3,N/A,,Clear,20,2013-03-20 18:35:00
1:55 PM,65.5,22.5,19,30.26,10.0,NE,12.7,18.4,N/A,,Clear,50,2013-03-20 18:55:00
2:15 PM,64.9,24.3,21,30.24,10.0,ENE,15.0,18.4,N/A,,Clear,70,2013-03-20 19:15:00
2:35 PM,64.9,24.3,21,30.22,10.0,ENE,11.5,-,N/A,,Clear,70,2013-03-20 19:35:00
2:55 PM,65.3,24.8,22,30.22,10.0,NNE,8.1,19.6,N/A,,Clear,20,2013-03-20 19:55:00
3:15 PM,65.8,24.4,21,30.20,10.0,ENE,12.7,-,N/A,,Clear,60,2013-03-20 20:15:00
3:35 PM,66.7,26.2,22,30.19,10.0,NE,10.4,19.6,N/A,,Clear,50,2013-03-20 20:35:00
3:55 PM,65.7,25.0,21,30.19,10.0,NE,4.6,-,N/A,,Clear,50,2013-03-20 20:55:00
4:15 PM,66.2,24.3,20,30.18,10.0,NE,8.1,-,N/A,,Clear,50,2013-03-20 21:15:00
4:35 PM,65.8,24.4,21,30.17,10.0,NNE,8.1,-,N/A,,Clear,20,2013-03-20 21:35:00
4:55 PM,65.5,25.0,22,30.16,10.0,East,4.6,-,N/A,,Clear,90,2013-03-20 21:55:00
5:15 PM,66.0,24.1,20,30.16,10.0,NNE,8.1,-,N/A,,Clear,30,2013-03-20 22:15:00
5:35 PM,65.8,24.3,21,30.14,10.0,ENE,9.2,-,N/A,,Clear,60,2013-03-20 22:35:00
5:55 PM,64.8,23.9,21,30.14,10.0,NE,8.1,-,N/A,,Clear,50,2013-03-20 22:55:00
6:15 PM,65.3,24.4,21,30.14,10.0,NE,5.8,-,N/A,,Clear,40,2013-03-20 23:15:00
6:35 PM,64.0,23.9,22,30.12,10.0,ENE,5.8,-,N/A,,Clear,70,2013-03-20 23:35:00
6:55 PM,63.9,23.9,22,30.12,10.0,ENE,5.8,-,N/A,,Clear,70,2013-03-20 23:55:00
7:15 PM,62.6,25.0,24,30.11,10.0,East,6.9,-,N/A,,Clear,80,2013-03-21 00:15:00
7:35 PM,60.1,25.9,27,30.11,10.0,ENE,4.6,-,N/A,,Clear,60,2013-03-21 00:35:00
7:55 PM,58.6,26.2,29,30.11,10.0,ENE,4.6,-,N/A,,Clear,60,2013-03-21 00:55:00
8:15 PM,57.4,25.7,30,30.10,10.0,Calm,Calm,-,N/A,,Clear,0,2013-03-21 01:15:00
8:35 PM,56.7,28.0,33,30.11,10.0,Calm,Calm,-,N/A,,Clear,0,2013-03-21 01:35:00
8:55 PM,54.3,28.0,36,30.10,10.0,Calm,Calm,-,N/A,,Clear,0,2013-03-21 01:55:00
9:15 PM,52.9,28.2,39,30.10,10.0,Calm,Calm,-,N/A,,Clear,0,2013-03-21 02:15:00
9:35 PM,52.3,28.9,41,30.10,10.0,Calm,Calm,-,N/A,,Clear,0,2013-03-21 02:35:00
9:55 PM,52.0,26.2,37,30.09,10.0,East,3.5,-,N/A,,Clear,90,2013-03-21 02:55:00
10:15 PM,51.6,27.5,39,30.09,10.0,Calm,Calm,-,N/A,,Clear,0,2013-03-21 03:15:00
10:35 PM,51.3,28.0,41,30.08,10.0,Calm,Calm,-,N/A,,Clear,0,2013-03-21 03:35:00
10:55 PM,51.1,28.0,41,30.07,10.0,Calm,Calm,-,N/A,,Clear,0,2013-03-21 03:55:00
11:15 PM,51.6,28.0,40,30.06,10.0,Calm,Calm,-,N/A,,Clear,0,2013-03-21 04:15:00
11:35 PM,51.8,28.4,41,30.05,10.0,Calm,Calm,-,N/A,,Clear,0,2013-03-21 04:35:00
11:55 PM,51.6,30.4,44,30.06,10.0,Calm,Calm,-,N/A,,Clear,0,2013-03-21 04:55:00